Location: Unspecified
(0.0000°N, 0.0000°E)
Time: 11:21:49
(UTC+00:00)

A-11 Canister half - Pass Details

Date: 20 November 2019
Orbit: 1526 x 1683 km, 47.3° (Epoch: 13 December)

Event Time Altitude Azimuth Distance (km) Brightness Sun altitude
Rises 20:42:05 0° 312° (NW) 4,685 11.8 -40.9°
Reaches altitude 10° 20:45:10 10° 309° (NW) 3,694 11.2 -41.6°
Enters shadow 20:52:17 52° 276° (W) 1,837 9.4 -43.2°
